Probability
0 0 0 0 0 0 0 0 0 0 0 0 0 0 0 0 0 0 0 0 0 0 0 0 0 0 0 0 0 0 0 0 0 0 0 0 0 0 0 0 0 0 0
0 0 0 0 0 0 0 0 0 0 0 0 0 0 0 0 0 0 0 0 0 0 0 0 0 0 0 0 0 0 0 0 0 0 0 0 0 0 0 0 0 0 0
0 0 0 0 0 0 0 0 0 0 0 0 0 0 0 0 0 0 0 0 0 0 0 0 0 0 0 0 0 0 0 0 0 0 0 0 0 0 0 0 0 0 0
0 0 0 0 0 0 0 0 0 0 0 0 0 0 0 0 0 0 0 0 0 0 0 0 0 0 0 0 0 0 0 0 0 0 0 0 0 0 0 0 0 0 0
0 0 0 0 0 0 0 0 0 0 0 0 0 0 0 0 0 0 0 0 0 0 0 0 0 0 0 0 0 0 0 0 0 0 0 0 0 0 0 0 0 0 0
0 0 0 0 0 0 0 0 0 0 0 0 0 0 0 0 0 0 0 0 0 0 0 0 0 0 0 0 0 0 0 0 0 0 0 0 0 0 0 0 0 0 0
0 0 0 0 0 0 0 0 0 0 0 0 0 0 0 0 0 0 0 0 0 0 0 0 0 0 0 0 0 0 0 0 0 0 0 0 0 0 0 0 0 0 0
0 0 0 0 0 0 0 0 0 0 0 0 0 0 0 0 0 0 0 0 0 0 0 0 0 0 0 0 0 0 0 0 0 0 0 0 0 0 0 0 0 0 0
0 0 0 0 0 0 0 0 0 0 0 0 0 0 0 0 0 0 0 0 0 0 0 0 0 0 0 0 0 0 0 0 0 0 0 0 0 0 0 0 0 0 0
0 0 0 0 0 0 0 0 0 0 0 0 0 0 0 0 0 0 0 0 0 0 0 0 0 0 0 0 0 0 0 0 0 0 0 0 0 0 0 0 0 0 0
0 0 0 0 0 0 0 0 0 0 0 0 0 0 0 0 0 0 0 0 0 0 0 0 0 0 0 0 0 0 0 0 0 0 0 0 0 0 0 0 0 0 0
0 0 0 0 0 0 0 0 0 0 0 0 0 0 0 0 0 0 0 0 0 0 0 0 0 0 0 0 0 0 0 0 0 0 0 0 0 0 0 0 0 0 0
0 0 0 0 0 0 0 0 0 0 0 0 0 0 0 0 0 0 0 0 0 0 0 0 0 0 0 0 0 0 0 0 0 0 0 0 0 0 0 0 0 0 0
0 0 0 0 0 0 0 0 0 0 0 0 0 0 0 0 0 0 0 0 0 0 0 0 0 0 0 0 0 0 0 0 0 0 0 0 0 0 0 0 0 0 0
0 0 0 0 0 0 0 0 0 0 0 0 0 0 0 0 0 0 0 0 0 0 0 0 0 0 0 0 0 0 0 0 0 0 0 0 0 0 0 0 0 0 0
0 0 0 0 0 0 0 0 0 0 0 0 0 0 0 0 0 0 0 0 0 0 0 0 0 0 0 0 0 0 0 0 0 0 0 0 0 0 0 0 0 0 0
0 0 0 0 0 0 0 0 0 0 0 0 0 0 0 0 0 0 0 0 0 0 0 0 0 0 0 0 0 0 0 0 0 0 0 0 0 0 0 0 0 0 0
0 0 0 0 0 0 0 0 0 0 0 0 0 0 0 0 0 0 0 0 0 0 0 0 0 0 0 0 0 0 0 0 0 0 0 0 0 0 0 0 0 0 0
0 0 0 0 0 0 0 0 0 0 0 0 0 0 0 0 0 0 0 0 0 0 0 0 0 0 0 0 0 0 0 0 0 0 0 0 0 0 0 0 0 0 0
0 0 0 0 0 0 0 0 0 0 0 0 0 0 0 0 0 0 0 0 0 0 0 0 0 0 0 0 0 0 0 0 0 0 0 0 0 0 0 0 0 0 0
0 0 0 0 0 0 0 0 0 0 0 0 0 0 0 0 0 0 0 0 0 0 0 0 0 0 0 0 0 0 0 0 0 0 0 0 0 0 0 0 0 0 0
0 0 0 0 0 0 0 0 0 0 0 0 0 0 0 0 0 0 0 0 0 0 0 0 0 0 0 0 0 0 0 0 0 0 0 0 0 0 0 0 0 0 0
0 0 0 0 0 0 0 0 0 0 0 0 0 0 0 0 0 0 0 0 0 0 0 0 0 0 0 0 0 0 0 0 0 0 0 0 0 0 0 0 0 0 0
0 0 0 0 0 0 0 0 0 0 0 0 0 0 0 0 0 0 0 0 0 0 0 0 0 0 0 0 0 0 0 0 0 0 0 0 0 0 0 0 0 0 0
0 0 0 0 0 0 0 0 0 0 0 0 0 0 0 0 0 0 0 0 0 0 0 0 0 0 0 0 0 0 0 0 0 0 0 0 0 0 0 0 0 0 0
0 0 0 0 0 0 0 0 0 0 0 0 0 0 0 0 0 0 0 0 0 0 0 0 0 0 0 0 0 0 0 0 0 0 0 0 0 0 0 0 0 0 0
Wind_Speed
3 3 3 3 3 3 3 3 3 3 4 5 5 6 6 6 6 5 6 6 7 7 6 7 8 7 6 5 5 5 6 6 11 10 6 6 7 8 8 7 7 8 9
3 2 2 2 2 2 3 3 3 4 4 5 5 5 6 7 6 7 8 8 8 9 9 8 9 8 8 6 6 7 7 7 9 14 10 7 8 8 9 10 8 8 8
3 2 2 1 1 1 2 3 3 4 4 5 5 6 7 7 7 8 8 9 9 9 10 11 11 10 11 8 8 9 8 9 8 11 12 8 7 6 8 8 8 8 8
4 3 2 1 0 1 2 3 3 4 4 5 6 6 7 8 9 9 10 11 11 11 11 11 12 11 12 11 11 10 9 10 10 11 12 9 8 7 7 7 8 6 8
4 4 3 2 2 2 2 3 3 4 5 6 7 7 7 7 7 11 12 13 14 14 14 13 13 13 18 17 14 11 10 10 10 11 12 11 9 6 8 6 10 7 8
5 4 3 3 2 2 2 3 4 5 5 6 7 8 9 8 16 20 17 14 15 16 16 15 15 15 16 23 26 25 22 16 13 12 13 14 13 8 7 8 9 9 9
5 4 4 3 2 1 2 3 4 5 6 6 7 8 10 12 19 21 22 17 15 14 15 15 14 13 15 16 20 24 23 25 26 19 18 18 17 11 10 12 11 13 14
5 5 4 3 2 1 2 3 4 5 6 7 8 9 10 12 20 22 23 16 14 14 14 15 16 16 15 18 17 17 17 17 19 16 16 18 17 14 13 16 16 16 16
6 5 4 3 2 0 2 4 4 5 6 7 8 8 10 13 20 22 22 12 12 14 14 14 15 16 22 26 20 18 18 16 20 26 27 27 30 30 24 14 13 14 17
6 5 5 3 2 1 3 4 3 5 7 8 9 8 10 11 18 22 22 10 11 12 12 13 17 19 25 27 19 16 18 17 16 16 20 22 21 21 26 19 14 15 15
5 5 4 2 1 2 3 3 4 6 7 7 10 10 10 11 17 21 21 12 11 13 12 11 12 24 28 29 27 19 22 23 17 16 15 14 13 13 13 14 14 15 16
6 4 3 1 1 2 3 4 4 5 7 7 8 9 8 9 13 17 23 23 22 14 13 12 14 27 30 32 25 25 31 27 13 11 12 12 12 12 12 13 16 17 18
5 3 2 2 3 3 3 5 4 4 5 6 6 8 8 8 10 20 22 25 26 17 14 23 28 31 30 22 23 29 22 13 11 12 13 13 12 13 13 12 14 16 19
5 3 3 3 3 3 3 4 4 4 5 6 7 8 9 9 8 9 10 12 16 16 13 16 24 25 22 21 17 15 11 11 11 13 14 13 12 11 11 12 13 12 15
4 4 3 4 4 4 4 5 6 7 8 8 8 8 9 9 12 22 18 12 11 12 13 8 8 10 10 10 10 10 10 10 11 11 12 12 12 12 12 12 12 13 14
4 4 3 3 3 4 4 5 10 12 16 18 17 14 10 15 22 23 23 23 23 22 12 7 8 9 10 10 11 12 11 11 11 12 11 12 12 12 12 12 12 13 14
5 4 3 3 3 4 4 4 6 8 12 14 13 15 15 18 19 20 20 20 18 16 6 6 8 9 10 10 11 11 12 12 12 12 12 12 12 11 12 12 12 12 13
5 5 4 4 4 4 4 4 4 6 8 7 9 14 16 17 18 18 18 14 9 8 4 6 8 9 9 10 11 12 12 12 12 12 12 11 11 11 11 12 11 12 11
5 4 4 4 4 4 4 4 4 5 6 7 8 8 11 15 15 15 12 4 6 8 7 7 7 8 9 10 11 11 12 12 13 12 12 11 10 10 11 11 11 13 11
4 7 5 4 4 4 4 4 4 5 5 6 7 7 6 6 5 7 5 5 5 6 7 8 8 8 9 10 11 11 11 12 12 11 12 11 10 10 11 12 10 10 9
4 5 5 4 4 4 4 5 5 4 5 6 7 8 13 5 5 7 7 6 6 7 8 8 9 9 9 9 10 11 13 11 11 11 11 11 11 10 9 9 9 8 6
4 4 4 4 4 4 5 5 5 5 6 7 7 7 12 5 5 6 6 7 6 6 7 8 9 8 8 9 11 11 12 12 11 11 11 11 11 10 9 8 6 5 3
4 4 4 4 4 5 5 5 5 5 6 6 6 6 5 5 5 6 7 7 7 7 7 7 8 9 8 8 9 10 12 12 11 11 12 11 10 9 8 7 6 5 3
5 5 5 5 4 5 5 5 5 6 6 6 5 5 6 6 6 7 7 7 7 7 7 7 8 11 14 12 9 10 11 12 11 9 11 10 9 8 7 6 6 6 5
4 5 5 5 5 5 5 5 6 6 5 6 6 6 6 6 6 7 6 6 7 8 10 9 8 9 12 16 14 13 16 18 12 9 8 8 8 8 7 7 6 6 6
5 5 5 5 5 5 5 6 6 6 6 6 6 6 6 6 7 7 6 6 6 8 9 9 9 12 14 13 14 17 18 17 12 11 8 6 7 7 7 6 7 6 6
Wind_Direction
128 118 105 92 79 65 54 36 20 10 6 2 354 348 344 341 338 330 320 315 312 306 302 301 296 295 290 286 282 275 266 256 271 281 274 279 274 271 274 266 259 257 257
169 149 128 103 70 49 32 17 10 0 356 350 344 340 336 334 329 322 315 313 303 301 299 294 290 292 285 283 277 273 270 261 266 280 285 283 272 268 268 268 265 259 252
187 175 160 127 57 27 12 7 1 353 347 347 344 336 331 327 322 314 305 302 298 294 294 292 292 289 287 283 278 276 274 273 266 273 279 277 276 266 270 266 258 259 256
190 185 189 189 116 29 16 11 359 353 350 347 339 330 326 323 317 313 312 308 301 296 293 290 289 285 286 286 282 278 278 277 274 274 277 274 271 267 263 268 269 253 256
189 192 194 157 109 70 38 14 357 356 349 337 330 327 325 319 313 316 314 308 305 302 299 296 293 290 288 287 285 282 278 276 277 277 278 278 270 261 260 257 267 268 259
188 188 161 133 105 69 27 358 346 342 336 330 327 323 320 316 314 315 314 309 305 303 302 302 299 293 290 292 291 289 285 281 280 276 278 276 276 268 266 263 268 271 271
178 167 151 134 116 65 2 343 337 332 330 326 320 318 311 307 311 313 312 308 301 298 297 297 296 296 297 293 290 289 287 283 280 278 276 275 279 278 277 273 266 263 263
173 165 154 143 133 58 345 329 326 325 323 316 312 305 301 302 310 312 311 306 298 294 293 294 293 294 292 291 288 285 282 281 279 276 272 275 277 277 269 270 272 272 270
182 175 161 149 142 358 320 317 318 316 309 303 296 298 299 301 307 308 307 302 296 295 293 290 289 288 288 290 289 286 285 283 284 280 278 278 279 280 277 273 265 260 262
186 162 148 144 155 261 292 301 299 300 296 298 298 297 293 292 298 305 308 300 294 293 290 286 284 284 285 288 286 283 282 282 279 277 276 277 278 279 278 271 268 265 265
142 138 144 143 186 262 276 282 291 293 295 293 293 291 286 286 294 302 304 300 294 294 293 292 289 291 290 289 287 281 278 281 277 274 274 273 271 270 267 263 259 257 259
140 146 157 188 263 262 268 278 278 281 289 288 289 291 286 286 290 297 302 303 302 298 295 292 289 291 291 291 289 283 286 288 282 279 276 274 273 270 267 264 262 259 256
146 170 206 243 252 249 255 270 274 268 274 285 289 293 295 289 289 300 303 302 301 299 292 294 297 300 300 298 293 293 292 285 278 275 273 272 271 272 274 271 267 264 261
170 198 220 235 250 247 251 255 256 258 264 271 277 282 287 289 291 292 288 294 301 302 298 300 306 308 307 305 302 299 290 281 276 274 274 275 276 273 271 270 268 265 264
183 206 226 232 243 259 258 246 256 243 242 257 261 266 287 298 300 307 312 310 309 308 321 329 324 318 312 310 307 304 299 292 283 276 275 275 273 271 270 267 265 264 261
194 210 216 229 241 253 268 281 280 281 283 285 288 292 297 300 309 316 319 323 330 335 344 329 317 314 312 312 311 309 305 301 297 290 281 275 273 271 272 273 267 263 260
199 207 215 234 244 254 263 278 296 304 299 300 302 308 308 313 320 324 329 337 343 348 344 313 312 312 311 310 308 306 305 303 299 294 287 280 275 272 271 272 272 268 262
203 214 219 227 237 245 252 260 268 286 301 301 305 309 314 323 325 331 341 351 336 337 310 306 309 309 308 308 307 306 305 304 302 298 292 286 278 274 271 270 271 270 269
205 214 218 226 232 239 247 255 258 262 271 286 301 306 318 319 325 335 351 346 311 315 313 308 304 306 306 305 304 304 305 305 305 304 300 293 285 278 274 271 270 271 270
213 228 225 222 230 238 242 248 254 257 265 275 283 292 306 305 323 328 328 306 301 301 305 306 306 305 305 305 306 307 310 311 311 310 309 306 299 290 282 279 276 272 267
209 225 231 229 231 235 239 242 247 252 260 267 272 280 294 308 309 303 303 301 299 302 305 306 305 306 305 307 308 309 309 311 313 314 313 311 309 304 297 288 283 279 274
209 215 218 226 233 237 239 239 242 249 256 265 276 289 304 307 289 286 288 290 290 288 290 295 297 298 300 305 309 309 310 312 316 318 318 315 313 313 313 310 307 304 300
213 223 230 233 233 242 247 242 242 248 254 258 268 279 284 279 276 279 282 287 291 293 293 291 292 296 299 303 303 303 306 311 317 318 319 318 320 322 324 327 335 349 14
209 222 234 239 237 238 245 249 247 250 253 259 262 265 269 272 275 278 280 284 289 291 290 290 288 291 299 306 305 304 304 312 320 321 320 321 325 330 336 344 355 12 33
219 225 234 240 241 244 248 253 253 253 255 259 261 265 268 271 275 277 278 281 288 291 294 295 290 294 300 305 305 304 308 318 330 338 330 331 336 342 348 356 6 20 36
225 229 235 238 241 242 244 251 255 256 257 260 260 261 267 272 275 277 280 283 289 294 296 296 294 298 302 303 304 310 316 325 347 357 349 342 349 356 358 6 16 26 34